Regional Weather Roundup
Issued by NWS

Home | Current Version | Previous Version | Graphics & Text | Print | Product List | Glossary On
Versions: 1 2 3 4 5 6 7 8 9 10 11 12 13 14 15 16 17 18 19 20 21 22 23 24 25 26 27 28 29 30 31 32 33 34 35 36 37 38 39 40 41 42 43 44 45 46 47 48 49 50
000
ASUS43 KFSD 301802
RWRSD

WEATHER ROUNDUP FOR SOUTH DAKOTA
NATIONAL WEATHER SERVICE SIOUX FALLS SD
100 PM CDT SUN AUG 30 2015

NOTE: "FAIR" INDICATES FEW OR NO CLOUDS BELOW 12,000 FEET WITH NO
SIGNIFICANT WEATHER AND/OR OBSTRUCTIONS TO VISIBILITY.


SDZ001>005-009-010-012>017-301900-
NORTHWEST AND NORTH CENTRAL SOUTH DAKOTA

CITY           SKY/WX    TMP DP  RH WIND       PRES   REMARKS
FAITH            N/A     88  53  30 S16       29.76F
MOBRIDGE       MOSUNNY   85  60  42 SE14      29.72F
$$

SDZ012>016-024>037-041>051-057-063-072>074-301900-
SOUTHWEST AND SOUTH CENTRAL SOUTH DAKOTA

CITY           SKY/WX    TMP DP  RH WIND       PRES   REMARKS
RAPID CTY ARPT MOSUNNY   89  57  33 S10       29.81F
PIERRE         SUNNY     95  52  23 S20G28    29.75F
CUSTER         SUNNY     88  39  17 VRB7      30.01F
ELLSWORTH AFB  MOSUNNY   89  57  33 SW7       29.81S
PHILIP         MOSUNNY   92  58  31 SW16      29.77F
PINE RIDGE     MOSUNNY   89  50  26 S14G22    29.88F
WINNER         FAIR      91  52  26 S20G30    29.86F
$$

SDZ004>011-016>023-039-040-301900-
NORTHEAST SOUTH DAKOTA

CITY           SKY/WX    TMP DP  RH WIND       PRES   REMARKS
ABERDEEN       SUNNY     80  67  64 S15       29.81F
WATERTOWN      MOSUNNY   78  66  66 S12       29.89F
BROOKINGS      SUNNY     73  64  73 S14G20    29.95F
$$

SDZ017-020-022-023-036>040-048>070-301900-
SOUTHEAST SOUTH DAKOTA

CITY           SKY/WX    TMP DP  RH WIND       PRES   REMARKS
SIOUX FALLS    MOSUNNY   72  64  76 S13       29.97F
HURON          SUNNY     79  66  64 S12G22    29.86F
CHAMBERLAIN    SUNNY     84  62  48 S14       29.85F
MITCHELL       SUNNY     80  67  64 S14G22    29.89F
YANKTON        SUNNY     77  68  73 SE13      29.94F
$$

ABBREVIATIONS USED IN REMARKS
   TC - TEMPERATURE IN CELSIUS
  WCI - WIND CHILL INDEX
   HX - HEAT INDEX
  VSB - VISIBILITY




USA.gov is the U.S. government's official web portal to all federal, state and local government web resources and services.